Location: Sungai Apap
(2.6167°N, 113.3833°E)
Time: 07:50:42
(UTC+00:00)

DELTA 1 DEB - Visible Passes

Search period start: 07 October 2024 00:00
Search period end: 17 October 2024 00:00
Orbit: 930 x 1256 km, 99.8° (Epoch: 06 October)

Date Brightness Start Highest point End Pass type
(mag) Time Alt. Az. Time Alt. Az. Time Alt. Az.
07 Oct ? 21:18:55 10° SSE 21:26:20 71° ENE 21:33:23 10° N visible
08 Oct ? 10:42:18 10° NNW 10:46:18 19° WNW 10:50:24 10° WSW visible
08 Oct ? 20:34:24 10° SE 20:40:23 27° ENE 20:46:07 10° NNE visible
09 Oct ? 21:32:16 10° SSE 21:39:43 89° WSW 21:46:47 10° NNW visible
10 Oct ? 10:56:54 10° NW 10:59:35 13° WNW 11:02:20 10° WSW visible
10 Oct ? 20:47:11 10° SE 20:53:46 36° ENE 21:00:01 10° NNE visible
11 Oct ? 20:05:15 10° E 20:07:49 12° ENE 20:10:21 10° NE visible
11 Oct ? 21:45:43 10° S 21:53:05 69° WSW 22:00:01 10° NNW visible
12 Oct ? 21:00:08 10° SSE 21:07:07 47° ENE 21:13:42 10° N visible
13 Oct ? 20:16:45 10° ESE 20:21:09 17° ENE 20:25:21 10° NE visible
14 Oct ? 21:13:14 10° SSE 21:20:27 63° ENE 21:27:13 10° N visible
15 Oct ? 10:35:34 10° NNW 10:40:06 23° WNW 10:44:51 10° SW visible
15 Oct ? 20:29:00 10° SE 20:34:27 23° ENE 20:39:37 10° NNE visible
16 Oct ? 21:26:27 10° SSE 21:33:46 82° ENE 21:40:34 10° N visible
